CW9009 Weather Reports


Display with metric or nautical units.
time (UTC)temp
F
wind
direction
speed
MPH
gust
MPH
rain 1hr
in
rain 24hr
in
rain mn
in
humidity
%
barometer
mb
20260903203423 74 274 2.0 2.0 0.00 0.12 0.12 58 1010.4
20260903202443 74 297 1.0 2.0 0.00 0.12 0.12 55 1010.7
20260903201423 74 261 2.0 3.0 0.00 0.12 0.12 57 1010.8
20260903200504 74 0.0 0.0 0.00 0.12 0.12 59 1010.9
20260903195423 73 276 1.0 2.0 0.00 0.12 0.12 58 1011.1
20260903194424 73 0.0 0.0 0.00 0.12 0.12 59 1011.2
20260903193424 72 113 2.0 2.0 0.00 0.12 0.12 59 1011.4
20260903192424 72 86 1.0 3.0 0.00 0.12 0.12 59 1011.5
20260903191424 71 304 0.0 1.0 0.00 0.12 0.12 60 1011.7
20260903190424 71 69 1.0 2.0 0.00 0.12 0.12 62 1012.0
20260903185425 0 88 2.0 3.0 0.00 0.12 0.12
20260903184425 70 196 1.0 2.0 0.00 0.12 0.12 65 1012.5
20260903183425 69 309 0.0 1.0 0.00 0.12 0.12 67 1012.6
20260903182426 69 113 1.0 3.0 0.00 0.12 0.12 68 1012.7
20260903181427 68 103 2.0 3.0 0.00 0.12 0.12 69 1012.7
20260903180426 68 47 1.0 1.0 0.00 0.12 0.12 69 1012.7
20260903175426 67 118 2.0 3.0 0.00 0.12 0.12 70 1012.8
20260903174426 67 77 2.0 3.0 0.00 0.12 0.12 73 1012.8
20260903173426 66 89 3.0 5.0 0.00 0.12 0.12 74 1013.1
20260903172427 65 79 3.0 3.0 0.00 0.12 0.12 74 1013.2
20260903171427 65 53 1.0 2.0 0.00 0.12 0.12 78 1013.4
20260903170426 64 81 1.0 2.0 0.00 0.12 0.12 79 1013.5
20260903165427 64 95 2.0 3.0 0.00 0.12 0.12 79 1013.5
20260903164427 63 95 2.0 3.0 0.00 0.12 0.12 80 1013.4
20260903163427 62 83 2.0 3.0 0.00 0.12 0.12 83 1013.5
20260903162427 62 119 3.0 3.0 0.00 0.12 0.12 85 1013.5
20260903161428 61 96 2.0 4.0 0.00 0.12 0.12 89 1013.4
20260903160428 61 139 2.0 2.0 0.00 0.12 0.12 91 1013.5
20260903155428 60 126 2.0 2.0 0.00 0.12 0.12 91 1013.6
20260903154428 60 0.0 0.0 0.00 0.12 0.12 94 1013.6
20260903153508 59 125 2.0 2.0 0.00 0.12 0.12 94 1013.7
20260903152428 59 84 1.0 1.0 0.00 0.12 0.12 96 1013.7
20260903151429 59 119 2.0 2.0 0.00 0.12 0.12 98 1013.8
20260903150429 58 180 0.0 1.0 0.00 0.12 0.12 98 1013.7
20260903145428 58 0 0.0 0.0 0.00 0.12 0.12 98 1013.7
20260903144429 58 0.0 0.0 0.00 0.12 0.12 98 1013.7
20260903143429 58 129 2.0 2.0 0.00 0.12 0.12 98 1013.6
20260903142429 58 81 2.0 2.0 0.00 0.12 0.12 98 1013.6
20260903141430 58 75 1.0 2.0 0.00 0.12 0.12 98 1013.5
20260903140430 58 122 1.0 2.0 0.00 0.12 0.12 98 1013.5
20260903135430 57 124 1.0 2.0 0.00 0.12 0.12 96 1013.4
20260903134430 57 0.0 0.0 0.00 0.12 0.12 95 1013.6
20260903133430 58 0 0.0 0.0 0.00 0.12 0.12 94 1013.4
20260903132430 58 0.0 0.0 0.00 0.12 0.12 91 1013.2
20260903131430 58 111 0.0 1.0 0.00 0.12 0.12 93 1013.1
20260903130431 58 0 0.0 0.0 0.00 0.12 0.12 93 1012.8
20260903125431 58 0.0 0.0 0.00 0.12 0.12 90 1012.7
20260903124431 58 114 3.0 3.0 0.00 0.12 0.12 90 1012.6
20260903123431 58 97 3.0 3.0 0.00 0.14 0.12 90 1012.7
20260903122431 58 105 3.0 5.0 0.00 0.14 0.12 91 1012.7
20260903121417 58 108 2.0 3.0 0.00 0.14 0.12 91 1012.7
20260903120417 58 107 3.0 4.0 0.00 0.14 0.12 91 1013.0
20260903115437 58 95 2.0 3.0 0.01 0.14 0.12 91 1012.8
20260903114437 58 114 2.0 2.0 0.01 0.14 0.12 91 1012.8
20260903113418 58 118 2.0 3.0 0.03 0.14 0.12 91 1012.7
20260903112417 58 0 0.0 0.0 0.03 0.14 0.12 93 1013.0
20260903111438 58 111 3.0 3.0 0.03 0.14 0.12 91 1013.0
20260903110418 58 129 2.0 2.0 0.03 0.14 0.11 93 1012.8
20260903105418 58 99 1.0 2.0 0.03 0.13 0.11 93 1013.0
20260903104438 58 107 1.0 3.0 0.03 0.13 0.11 93 1013.1
20260903103418 59 0.0 0.0 0.03 0.11 0.09 94 1013.2
20260903102418 59 0 0.0 0.0 0.03 0.11 0.09 93 1013.1
20260903101419 58 106 2.0 2.0 0.03 0.10 0.08 94 1012.8
20260903100419 59 103 2.0 3.0 0.03 0.10 0.08 93 1013.0
20260903095419 58 113 1.0 2.0 0.03 0.10 0.08 93 1013.1
20260903094419 58 0.0 0.0 0.04 0.10 0.08 94 1013.4
20260903093419 58 0.0 0.0 0.03 0.09 0.07 94 1013.3
20260903092420 59 0.0 0.0 0.02 0.08 0.06 93 1013.3
20260903091420 59 103 1.0 2.0 0.02 0.07 0.05 93 1013.4
20260903090420 59 257 1.0 1.0 0.02 0.07 0.05 91 1013.3
20260903085420 59 0.0 0.0 0.02 0.07 0.05 91 1013.4
20260903084420 59 0.0 0.0 0.01 0.06 0.04 90 1013.6
20260903083441 59 0.0 0.0 0.02 0.06 0.04 89 1013.6
20260903082440 59 0.0 0.0 0.03 0.06 0.04 89 1013.6
20260903081421 59 0.0 0.0 0.03 0.06 0.03 89 1013.6
20260903080421 59 0.0 0.0 0.03 0.06 0.03 86 1013.8
20260903075421 60 0.0 0.0 0.03 0.05 0.03 85 1013.7
20260903074421 60 0.0 0.0 0.03 0.05 0.03 84 1013.7
20260903073421 61 0.0 0.0 0.02 0.04 0.02 78 1013.6
20260903072421 62 0.0 0.0 0.00 0.02 0.00 73 1013.6
20260903071422 62 0.0 0.0 0.00 0.02 0.00 70 1013.6
20260903070422 62 0.0 0.0 0.00 0.02 0.00 69 1013.6
20260903065442 62 0.0 0.0 0.00 0.02 0.00 69 1013.5
20260903064422 62 0.0 0.0 0.00 0.02 0.00 69 1013.4
20260903063422 62 0 0.0 0.0 0.00 0.02 0.00 69 1013.3
20260903062423 62 0.0 0.0 0.00 0.02 0.00 70 1013.2
20260903061443 62 0.0 0.0 0.00 0.02 0.00 68 1013.1
20260903060423 63 0.0 0.0 0.00 0.02 0.00 68 1013.3
20260903055423 63 0.0 0.0 0.00 0.02 0.02 68 1013.2
20260903054443 63 0.0 0.0 0.00 0.02 0.02 70 1013.1
20260903053423 63 0.0 0.0 0.00 0.02 0.02 65 1013.1
20260903052423 64 0.0 0.0 0.00 0.02 0.02 64 1013.2
20260903051504 64 285 0.0 1.0 0.00 0.02 0.02 64 1013.1
20260903050424 64 285 0.0 2.0 0.00 0.02 0.02 63 1013.0
20260903045444 65 307 1.0 2.0 0.00 0.02 0.02 63 1013.0
20260903044424 65 304 1.0 1.0 0.00 0.02 0.02 62 1012.8
20260903043424 66 341 1.0 2.0 0.00 0.02 0.02 60 1012.6
20260903042425 66 344 1.0 2.0 0.00 0.02 0.02 59 1012.5
20260903041425 67 281 1.0 3.0 0.00 0.02 0.02 58 1012.4
20260903040425 67 0.0 0.0 0.00 0.02 0.02 58 1012.3
20260903035425 67 299 0.0 1.0 0.00 0.02 0.02 57 1012.2
20260903034426 68 0.0 0.0 0.00 0.02 0.02 55 1012.2
20260903033425 69 0.0 0.0 0.00 0.02 0.02 54 1012.0
20260903032426 69 300 0.0 1.0 0.00 0.02 0.02 52 1012.0
20260903031426 70 311 1.0 1.0 0.00 0.02 0.02 47 1011.7
20260903030427 70 267 2.0 2.0 0.00 0.02 0.02 45 1011.2
20260903025427 71 270 2.0 3.0 0.00 0.02 0.02 45 1011.3
20260903024427 71 274 2.0 3.0 0.00 0.02 0.02 45 1011.2
20260903023427 71 124 1.0 2.0 0.00 0.02 0.02 45 1011.2
20260903022507 72 276 2.0 3.0 0.00 0.02 0.02 44 1011.2
20260903021427 72 272 2.0 2.0 0.00 0.02 0.02 44 1011.2
20260903020427 72 0 0.0 0.0 0.00 0.02 0.02 44 1011.2
20260903015427 73 282 1.0 2.0 0.00 0.02 0.02 43 1011.2
20260903014428 73 272 3.0 3.0 0.00 0.02 0.02 43 1011.1
20260903013428 74 295 1.0 2.0 0.00 0.02 0.02 43 1011.0
20260903012428 74 278 2.0 3.0 0.00 0.02 0.02 42 1011.1
20260903011428 75 263 2.0 2.0 0.00 0.02 0.02 42 1011.1
20260903010429 75 271 2.0 3.0 0.00 0.02 0.02 40 1011.0
20260903005429 75 267 3.0 3.0 0.00 0.02 0.02 40 1011.0
20260903004448 75 279 2.0 2.0 0.00 0.02 0.02 40 1011.0
20260903003429 76 305 1.0 2.0 0.00 0.02 0.02 40 1011.0
20260903002429 76 276 3.0 3.0 0.00 0.02 0.02 40 1011.0
20260903001429 77 283 1.0 2.0 0.00 0.02 0.02 39 1010.9
20260903000429 78 278 1.0 2.0 0.00 0.02 0.02 39 1010.9
20260902235430 78 269 2.0 3.0 0.00 0.02 0.02 39 1010.9
20260902234450 78 248 3.0 3.0 0.00 0.02 0.02 39 1010.9
20260902233430 78 289 1.0 1.0 0.00 0.02 0.02 39 1010.9
20260902232510 78 279 1.0 2.0 0.00 0.02 0.02 39 1011.0
20260902231430 78 287 0.0 1.0 0.00 0.02 0.02 40 1011.1
20260902230430 78 0.0 0.0 0.00 0.02 0.02 39 1011.0
20260902225430 78 264 1.0 1.0 0.00 0.02 0.02 39 1011.2
20260902224416 79 273 2.0 3.0 0.00 0.02 0.02 38 1011.2
20260902223416 79 272 2.0 3.0 0.00 0.02 0.02 38 1011.2
20260902222431 80 255 1.0 2.0 0.00 0.02 0.02 39 1011.2
20260902221431 80 0 0.0 0.0 0.00 0.02 0.02 39 1011.2
20260902220431 79 269 1.0 3.0 0.00 0.02 0.02 40 1011.4
20260902215417 79 275 3.0 4.0 0.00 0.02 0.02 38 1011.4
20260902214438 79 0.0 0.0 0.00 0.02 0.02 39 1011.4
20260902213417 79 276 2.0 3.0 0.00 0.02 0.02 39 1011.5
20260902212418 78 251 1.0 2.0 0.00 0.02 0.02 39 1011.5
20260902211433 78 270 2.0 3.0 0.00 0.02 0.02 39 1011.5
20260902210433 78 271 3.0 4.0 0.00 0.02 0.02 40 1011.7
20260902205418 78 261 4.0 5.0 0.00 0.02 0.02 40 1011.7
20260902204418 77 269 2.0 3.0 0.00 0.02 0.02 40 1011.8